Preview of NWS' New Version of Forecast
This preview is not operational and should not be used for support decisions.

Regional Weather Roundup (RWR)

Issued by National Weather Service (NWS)

                            
000
ASUS42 KTBW 222118
RWRFL 
FLORIDA REGIONAL WEATHER ROUNDUP
NATIONAL WEATHER SERVICE TAMPA BAY RUSKIN FL
500 PM EDT THU AUG 22 2019

NOTE: "FAIR" INDICATES FEW OR NO CLOUDS BELOW 12,000 FEET WITH NO
SIGNIFICANT WEATHER AND/OR OBSTRUCTIONS TO VISIBILITY.

FLZ001>010-012>015-112-114-115-222200-
PANHANDLE FLORIDA
  
CITY           SKY/WX    TMP DP  RH WIND       PRES   REMARKS
PENSACOLA      FAIR      85  79  82 SE7       29.98F HX  98           
PENSACOLA NAS  PTSUNNY   85  79  82 E8        29.98F HX  98           
MILTON NAS     PTSUNNY   79  76  90 NW3       29.99F                  
CRESTVIEW      FAIR      86  73  65 S3        30.01F                  
DUKE FIELD     FAIR      85  74  71 SE5       29.99F                  
VALPARAISO     FAIR      84  75  74 SE5       29.99F                  
MARY ESTHER    PTSUNNY   85  75  73 SE3       29.98                   
TRI COUNTY     FAIR      88  74  63 SW9       30.00S HX  96           
PANAMA CITY    FAIR      86  78  77 S8        29.99F HX  98           
TYNDALL AFB    FAIR      87  76  70 S7        29.98F HX  97           
APALACHICOLA   FAIR      86  76  71 S7        29.99F HX  96           

STATION/POSITION SKY/WX   TEMP    WIND        PRES    WAVE   SWELL
                          AIR SEA DIR/SP/G            HT/PER HT/PER
                          (F)     (DEG/KT/KT) (MB)    (FT/S) (FT/S)
30.1N   87.6W              84 86  110/  6/  8 1015.4F   1/ 5   2/ 5
29.2N   88.2W              84 87  100/  8/ 10 1015.0F   1/ 5   2/ 5
28.8N   86.0W                 86  130/  8/ 10 1015.4F   2/ 5   2/ 5
PANAMA CITY BEAC           84 87  200/  5/  6 1016.4
TOWER C                    84     150/  6/  7 1015.8F
28.5N   84.5W              85      80/  6/  8 1016.1F   2/ 6   2/ 6

$$
FLZ011-016>038-118-127-128-134-139-239-222200-
NORTH FLORIDA
  
CITY           SKY/WX    TMP DP  RH WIND       PRES   REMARKS
MARIANNA       FAIR      90  73  57 SW7       29.97F HX  98           
TALLAHASSEE    PTSUNNY   90  78  68 W3        29.98F THUNDER HX 104   
PERRY          FAIR      91  78  64 CALM      29.99F HX 105           
LIVE OAK       MOSUNNY   93  72  49 VRB5      29.98F HX 100           
CROSS CITY     FAIR      88  77  70 SW7       29.99F HX 101           
LAKE CITY      FAIR      91  68  46 SE7       30.00F HX  95           
GAINESVILLE    FAIR      91  72  53 VRB5      30.02F HX  98           
WILLISTON      FAIR      92  71  50 E5        29.99F HX  99           
MAYPORT NAS    FAIR      87  75  67 E12       30.02F HX  96           
JACKSONVILLE   FAIR      91  70  49 SE10      30.00F HX  96           
JAX NAS        LGT RAIN  88  74  63 E10       30.02F HX  96           
JAX CECIL      MOSUNNY   93  75  55 E12       30.00F HX 104           
FERNANDINA BEA FAIR      86  77  75 MISG      30.02F HX  97           
ST AUGUSTINE   FAIR      87  77  72 E12       30.04S HX  99           
PALM COAST     SUNNY     88  73  62 E9        30.02F HX  96           

STATION/POSITION SKY/WX   TEMP    WIND        PRES    WAVE   SWELL
                          AIR SEA DIR/SP/G            HT/PER HT/PER
                          (F)     (DEG/KT/KT) (MB)    (FT/S) (FT/S)
SHELL POINT      NOT AVBL
KEATON BEACH               85     230/  6/  7 1015.9F
CEDAR KEY                  87     240/  3/  6 1016.4F
FERNANDINA                 92 84              1017.6
30.7N   81.3W                 85                N/A     2/12
MAYPORT                    84 83  130/  7/ 10 1017.6
31.4N   80.9W              83 85  160/ 10/ 10 1016.9F   1/11   2/11
ST AUGUSTINE               83 83   90/  9/ 11 1017.0F

$$
FLZ040-043>046-052-053-057-058-063-144-222200-
INTERIOR CENTRAL FLORIDA
  
CITY           SKY/WX    TMP DP  RH WIND       PRES   REMARKS
OCALA          FAIR      91  72  53 NE5       30.00F HX  98           
LEESBURG       FAIR      92  73  53 E12       30.01S HX 100           
SANFORD        FAIR      90  72  55 E15       30.01F HX  97           
ORLANDO EXEC   FAIR      91  71  51 E15       30.00S HX  97           
ORLANDO INTL   PTSUNNY   91  72  53 E16       30.00S HX  98           
KISSIMMEE      FAIR      90  74  59 SE18      30.00F HX  99           
WINTER HAVEN   FAIR      92  72  51 E13       30.00F HX  99           
LAKELAND       PTSUNNY   90  72  55 E5        30.00S HX  96           
BARTOW         MOSUNNY   90  73  58 E9G16     29.99F HX  98           
SEBRING        RAIN      78  74  88 E8G22     30.01S                  
OKEECHOBEE     PTSUNNY   82  73  74 E6        29.99F                  

$$
FLZ041-047-054-059-064-141-147-222200-
EAST CENTRAL FLORIDA
  
CITY           SKY/WX    TMP DP  RH WIND       PRES   REMARKS
ORMOND BEACH     N/A     86  77  74 E9        30.02F HX  97           
DAYTONA BEACH  FAIR      87  76  69 E10       30.02F HX  97           
DELAND         FAIR      88  75  66 E13G20    30.01F HX  97           
NEW SMYRNA BEA MOSUNNY   84  75  74 E12       30.03F                  
JFK SPACE CTR  FAIR      87  55  32 E10       30.01S                  
TITUSVILLE     MOSUNNY   90  73  58 E9        30.02F HX  98           
CAPE CANAVERAL FAIR      87  79  76 CALM      30.01S HX 101           
PATRICK AFB    FAIR      86  80  81 E9        30.01F HX 100           
MELBOURNE      FAIR      88  75  65 E10       30.01S HX  97           
VERO BEACH     FAIR      86  75  69 E13       30.01F HX  95           
FT PIERCE      FAIR      87  74  64 NE9       30.00F HX  95           
STUART         MOSUNNY   88  73  62 E12       30.01F HX  96           

STATION/POSITION SKY/WX   TEMP    WIND        PRES    WAVE   SWELL
                          AIR SEA DIR/SP/G            HT/PER HT/PER
                          (F)     (DEG/KT/KT) (MB)    (FT/S) (FT/S)
28.5N   80.2W              84 84   90/ 10/ 12 1016.4F
28.9N   78.5W              85      80/ 10/ 16 1017.3F   3/ 7   2/ 7
TRIDENT PIER               86 83   50/  9/ 11 1018.1
28.4N   80.5W                 84                N/A     2/ 4
27.5N   80.2W                 84                N/A     2/ 4

$$
FLZ050-056-061-142-242-148-248-149-249-151-251-155-255-
160-260-222200-
WEST CENTRAL FLORIDA
  
CITY           SKY/WX    TMP DP  RH WIND       PRES   REMARKS
CRYSTAL RIVER  FAIR      90  77  66 NW5       29.98F HX 102           
INVERNESS      FAIR      91  72  52 CALM      29.99F HX  98           
BROOKSVILLE    FAIR      93  70  46 E7        29.99F HX  99           
CLEARWATER AIR FAIR      88  75  66 N9        29.98S HX  97           
ST PETE CLEARW FAIR      93  74  53 N7        29.97F HX 103           
TAMPA INTL     FAIR      94  69  44 NE6       29.98F HX  99           
PLANT CITY     FAIR     N/A N/A N/A E8        30.00F                  
MACDILL AFB    FAIR      92  72  51 N3        29.97F HX  99           
PETER O KNIGHT CLOUDY    95  73  49 NE6       29.97F HX 105           
ST PETERSBURG  FAIR      92  72  51 E5        29.96F HX  99           
SARASOTA       FAIR      91  71  51 NE5       29.95F HX  97           
VENICE         FAIR      91  77  62 NW12      29.97F HX 105           

STATION/POSITION SKY/WX   TEMP    WIND        PRES    WAVE   SWELL
                          AIR SEA DIR/SP/G            HT/PER HT/PER
                          (F)     (DEG/KT/KT) (MB)    (FT/S) (FT/S)
27.3N   84.2W                 87                N/A     2/ 8
CLEARWATER BEACH           87 89  310/  7/  8 1015.8
MIDDLE TAMPA BAY           88      10/  6/  8 1015.5
VENICE                     87 86  320/ 11/ 12 1014.8F

$$
FLZ066-069-070-075>078-162-262-165-265-222200-
SOUTHWEST FLORIDA AND KEYS
  
CITY           SKY/WX    TMP DP  RH WIND       PRES   REMARKS
PUNTA GORDA    PTSUNNY   88  73  61 E14       29.98F HX  95           
FT MYERS       PTSUNNY   87  74  64 SE12      29.96F HX  95           
SOUTHWEST INTL LGT RAIN  83  78  85 SE12      29.97S                  
NAPLES         LGT RAIN  81  76  84 SE5       29.98F                  
MARCO ISLAND   CLOUDY   N/A N/A N/A NE3         N/A                   
IMMOKALEE        N/A     86  75  70 E10       29.97S HX  95           
MARATHON       FAIR      88  75  65 NE12      29.97S HX  97           
KEY WEST NAS   FAIR      91  74  57 N9        29.97F HX 100           
KEY WEST INTL  FAIR      91  76  61 N9        29.97F HX 103           

STATION/POSITION SKY/WX   TEMP    WIND        PRES    WAVE   SWELL
                          AIR SEA DIR/SP/G            HT/PER HT/PER
                          (F)     (DEG/KT/KT) (MB)    (FT/S) (FT/S)
NAPLES                     82 88              1015.8
26.0N   85.6W              85      90/  6/  8 1015.7F   2/ 7   2/ 7
DRY TORTUGAS               85      30/  6/  7 1015.4F
SAND KEY                   85     360/  7/ 10 1013.7F
SOMBRERO KEY               83     350/ 13/ 16 1014.9F
LONG KEY                   79                 1013.8F

$$
FLZ067-068-071>074-168-172>174-222200-
SOUTHEAST FLORIDA 
  
CITY           SKY/WX    TMP DP  RH WIND       PRES   REMARKS
W PALM BEACH   FAIR      84  76  76 E13       30.00S                  
BOCA RATON     MOSUNNY   86  75  70 NE16G23   29.99S HX  95           
FT LAUDER-EXEC PTSUNNY   82  76  81 E6        29.99S                  
FT LAUDERDALE  PTSUNNY   82  77  84 E7        29.98S                  
POMPANO BEACH  PTSUNNY   86  75  69 NE13      29.99S HX  95           
PEMBROKE PINES PTSUNNY   82  76  81 NE9       30.00S                  
OPA LOCKA      FAIR      83  77  82 NE8       29.99F                  
MIAMI          PTSUNNY   87  70  56 NE12      29.98S                  
WEST KENDALL   FAIR      84  77  79 E7        29.97S                  
HOMESTEAD      FAIR      85  76  74 NE10      29.96F HX  95           

STATION/POSITION SKY/WX   TEMP    WIND        PRES    WAVE   SWELL
                          AIR SEA DIR/SP/G            HT/PER HT/PER
                          (F)     (DEG/KT/KT) (MB)    (FT/S) (FT/S)
VIRGINIA KEY               84 89   30/  7/ 12 1014.8
LAKE WORTH                 78 87   60/  6/  9 1017.3
FOWEY ROCKS                83 87   30/ 13/ 15 1015.1F
SETTLEMENT POINT           82      60/ 15/ 17 1015.7R

$$